Regional Weather Roundup
Issued by NWS Newport/Morehead, NC

Current Version | Previous Version | Graphics & Text | Print | Product List | Glossary On
Versions: 1 2 3 4 5 6 7 8 9 10 11 12 13 14 15 16 17 18 19 20 21 22 23 24 25 26 27 28 29 30 31 32 33 34 35 36 37 38 39 40 41 42 43 44 45 46 47 48 49 50
000 ASUS42 KMHX 250122 RWRMHX WEATHER ROUNDUP FOR EASTERN NORTH CAROLINA NATIONAL WEATHER SERVICE NEWPORT/MOREHEAD CITY NC 800 PM EST SAT JAN 24 2015 NOTE: "FAIR" INDICATES FEW OR NO CLOUDS BELOW 12,000 FEET WITH NO SIGNIFICANT WEATHER AND/OR OBSTRUCTIONS TO VISIBILITY NCZ015>017-031-032-045>047-102-103-250200- NORTH COAST CITY SKY/WX TMP DP RH WIND PRES REMARKS EDENTON CLEAR 42 39 90 W8 29.71R ELIZABETH CITY CLEAR 40 38 93 SW10 29.68R KITTY HAWK PTCLDY 42 41 95 W10G17 29.67R MANTEO PTCLDY 41 39 93 W8 29.70R $$ NCZ045>047-081-094-103-104-250200- CENTRAL COAST CITY SKY/WX TMP DP RH WIND PRES REMARKS FRISCO PTCLDY 45 40 82 W16G24 29.73R SWANQUARTER N/A 45 N/A N/A W9 29.68 $$ NCZ095-097-098-100-101-250200- SOUTHERN COAST CITY SKY/WX TMP DP RH WIND PRES REMARKS BEAUFORT CLEAR 45 40 82 W8 29.76R CEDAR ISLAND N/A 46 N/A N/A W14 29.77 JACKSONVILLE CLEAR 43 39 86 SW6 29.78R PINEY ISLAND N/A N/A N/A N/A MISG 29.74R WILMINGTON CLEAR 44 40 85 SW8 29.79R $$ NCZ011>013-027>030-043-044-078>080-089-090>093-098-250200- COASTAL PLAIN CITY SKY/WX TMP DP RH WIND PRES REMARKS AHOSKIE CLEAR 35 34 95 CALM 29.70R CLINTON CLEAR 41 40 98 CALM 29.77S ELIZABETHTOWN CLEAR 43 41 94 SW5 29.80R GOLDSBORO CLEAR 39 39 99 SW6 29.74R GREENVILLE CLEAR 37 37 100 SW3 29.76R HAVELOCK CLEAR 42 38 85 SW8 29.77R KENANSVILLE CLEAR 38 38 99 SW6 29.77S KINSTON CLEAR 39 37 93 SW5 29.76R NEW BERN CLEAR 44 38 79 SW5 29.76R RICHLANDS CLEAR 39 36 87 SW7 29.78R ROCKY MOUNT CLEAR 40 35 83 W3 29.74R WASHINGTON CLEAR 40 37 89 SW3 29.73R WHITEVILLE CLEAR 43 41 91 CALM 29.79R $$ AMZ130-135-150-152-154-156-158-170-250-252-270-ANZ085-086-088-633-658-670-250200- MARINE OBSERVATIONS STATION/POSITION TIME TEMP WIND PRES WAVE SWELL AIR SEA DIR/SP/G HT/PER HT/PER (UTC) (F) (DEG/KT/KT) (MB) (FT/S) (FT/S) CHESAPEAKE LIGHT 0100 42 260/ 19/ 21 1004.1 64 E VA BEACH 0100 45 53 300/ 23/ 29 1002.4 10/ 7 5/12 DUCK 0100 43 43 260/ 13/ 18 1004.2 2 E DUCK 0100 43 N/A 4/12 2/12 10 NE DUCK 0100 44 N/A 5/11 3/11 OREGON INLET 0100 42 49 250/ 11/ 14 1005.7 13E OREGON INLT 0100 46 N/A 7/11 3/11 HATTERAS CG 0100 47 57 290/ 20/ 23 1006.8 DIAMOND BUOY 0100 50 71 300/ 21/ 27 1005.5 10/11 5/11 17 S OCRACOKE NOT AVBL CAPE LOOKOUT 0100 48 280/ 17/ 19 1007.7 BEAUFORT LAB 0100 46 52 280/ 4/ 7 1006.7 27 SE WRIGHTSVLE NOT AVBL 5 SE WRIGHTSVLE 0100 48 51 260/ 14/ 17 1008.8 225 S CAPE HAT 0011 65 72 290/ 27/ 33 1007.2 18/10 41 SE CHARLESTON 0100 58 70 280/ 19/ 25 1010.0 8/ 8 3/11 $$

USA.gov is the U.S. government's official web portal to all federal, state and local government web resources and services.